Location: Raitis
(47.2167°N, 11.3833°E)
Time: 16:21:34
(UTC+00:00)

Cosmos 1703 Rocket - Pass Details

Date: 03 March 2021
Orbit: 604 x 634 km, 82.5° (Epoch: 20 April)

Event Time Altitude Azimuth Distance (km) Brightness Sun altitude
Rises 18:47:29 0° 348° (NNW) 2,913 7.3 -18.5°
Reaches altitude 10° 18:49:44 10° 347° (NNW) 1,997 6.5 -18.9°
Maximum altitude 18:54:08 73° 264° (W) 649 3.7 -19.6°
Drops below altitude 10° 18:58:28 10° 180° (S) 1,963 6.0 -20.3°
Enters shadow 18:59:27 - 179° (S) 2,360 6.4 -20.5°
